Hereford, TX

2:55 PM CDT on September 25, 2016 (GMT -0500)
Hereford Municipal

Weather History for KHRX - June, 2013

Change the Weather History Date:

Tuesday, June 18, 2013

  Actual Average (KAMA) Record (KAMA)
Temperature  
Mean Temperature 73 °F 75 °F  
Max Temperature 84 °F 89 °F 105 °F (1924)
Min Temperature 62 °F 62 °F 41 °F (1912)
Degree Days  
Heating Degree Days 0 0  
Month to date heating degree days 5  
Since 1 June heating degree days 5  
Since 1 July heating degree days 4176  
Cooling Degree Days 8 10  
Month to date cooling degree days 148  
Year to date cooling degree days 273  
Since 1 June cooling degree days 148  
Growing Degree Days 23 (Base 50)    
Moisture  
Dew Point 59 °F    
Average Humidity 69    
Maximum Humidity 89    
Minimum Humidity 38    
Precipitation  
Precipitation 0.00 in 0.10 in 2.84 in (1962)
Month to date precipitation 2.04  
Year to date precipitation 8.40  
Snow  
Snow 0.00 in 0.00 in T in (2008)
Month to date snowfall 0.0  
Since 1 June snowfall 0.0  
Since 1 July snowfall 17.8  
Snow Depth -    
Sea Level Pressure  
Sea Level Pressure 30.11 in    
Wind  
Wind Speed 9 mph (South)    
Max Wind Speed 17 mph    
Max Gust Speed 22 mph    
Visibility 10 miles    
Events Rain , Thunderstorm    
T = Trace of Precipitation, MM = Missing Value Source: NWS Daily Summary

Daily Weather History Graph

Daily Weather History Graph

Search for Another Location

Airport or City:

Trip Planner

Search our weather history database for the weather conditions in past years. The results will help you decide how hot, cold, wet, or windy it might be!

Date:

Astronomy

Jun. 18, 2013 Rise Set
Actual Time 6:35 AM CDT 9:05 PM CDT
Civil Twilight 6:05 AM CDT 9:35 PM CDT
Nautical Twilight 5:29 AM CDT 10:11 PM CDT
Astronomical Twilight 4:48 AM CDT 10:52 PM CDT
Moon 4:01 PM CDT (6/18) 2:35 AM CDT (6/18)
Length of Visible Light 15h 29m
Length of Day
14h 29m
Waxing Gibbous, 71% of the Moon is Illuminated
Jun 18
Waxing Gibbous
Jun 23
Full
Jun 29
Last Quarter
Jul 8
New
Jul 15
First Quarter

Hourly Weather History & Observations

Time (CDT) Temp. Heat Index Dew Point Humidity Pressure Visibility Wind Dir Wind Speed Gust Speed Precip Events Conditions
12:15 AM 64.6 °F - 58.8 °F 82% 30.09 in 10.0 mi SSE 12.7 mph 20.7 mph N/A   Clear
12:35 AM 65.7 °F - 56.8 °F 73% 30.11 in 10.0 mi SSE 12.7 mph - N/A   Clear
12:55 AM 64.9 °F - 56.5 °F 74% 30.11 in 10.0 mi South 8.1 mph - N/A   Clear
1:15 AM 64.4 °F - 56.5 °F 75% 30.10 in 10.0 mi South 6.9 mph - N/A Thunderstorm Clear
1:35 AM 64.4 °F - 56.3 °F 75% 30.12 in 10.0 mi SSW 5.8 mph - N/A   Clear
1:55 AM 64.2 °F - 56.3 °F 75% 30.12 in 10.0 mi South 4.6 mph - N/A   Clear
2:15 AM 64.6 °F - 55.8 °F 73% 30.12 in 10.0 mi South 3.5 mph - N/A   Clear
2:35 AM 64.9 °F - 55.9 °F 73% 30.14 in 10.0 mi Calm Calm - N/A   Clear
2:55 AM 63.9 °F - 58.1 °F 81% 30.19 in 10.0 mi North 8.1 mph - N/A   Clear
3:15 AM 63.7 °F - 58.5 °F 83% 30.18 in 10.0 mi North 9.2 mph - N/A   Clear
3:35 AM 63.5 °F - 58.5 °F 84% 30.16 in 10.0 mi Calm Calm - N/A   Clear
3:55 AM 63.9 °F - 58.5 °F 83% 30.16 in 10.0 mi WSW 3.5 mph - N/A   Clear
4:15 AM 63.0 °F - 59.0 °F 87% 30.16 in 10.0 mi West 9.2 mph - N/A   Clear
4:35 AM 63.1 °F - 58.1 °F 84% 30.15 in 10.0 mi WSW 5.8 mph - N/A   Clear
4:55 AM 62.6 °F - 58.3 °F 86% 30.17 in 10.0 mi WNW 5.8 mph - N/A   Clear
5:15 AM 62.2 °F - 59.0 °F 89% 30.17 in 10.0 mi West 9.2 mph - N/A   Clear
5:35 AM 63.5 °F - 57.7 °F 81% 30.17 in 10.0 mi West 9.2 mph - N/A   Clear
5:55 AM 64.4 °F - 58.1 °F 80% 30.17 in 10.0 mi WSW 10.4 mph - N/A   Clear
6:15 AM 64.4 °F - 58.1 °F 80% 30.17 in 10.0 mi West 12.7 mph - N/A   Clear
6:35 AM 64.0 °F - 58.5 °F 82% 30.18 in 10.0 mi WNW 5.8 mph - N/A   Mostly Cloudy
6:55 AM 63.9 °F - 59.0 °F 84% 30.18 in 10.0 mi ENE 6.9 mph - N/A Rain Light Rain
7:15 AM 63.5 °F - 59.5 °F 87% 30.18 in 10.0 mi Calm Calm - N/A   Light Drizzle
7:35 AM 63.7 °F - 59.9 °F 87% 30.19 in 10.0 mi NW 8.1 mph - N/A   Scattered Clouds
7:55 AM 64.6 °F - 59.5 °F 84% 30.17 in 10.0 mi Calm Calm - N/A   Clear
8:15 AM 64.9 °F - 59.5 °F 83% 30.16 in 10.0 mi SSW 5.8 mph - N/A   Clear
8:35 AM 66.4 °F - 59.7 °F 79% 30.17 in 10.0 mi SSW 5.8 mph - N/A Thunderstorm Clear
8:55 AM 67.5 °F - 59.9 °F 77% 30.16 in 10.0 mi SSW 4.6 mph - N/A   Clear
9:15 AM 69.4 °F - 59.4 °F 70% 30.15 in 10.0 mi South 6.9 mph - N/A   Clear
9:35 AM 70.2 °F - 59.2 °F 68% 30.16 in 10.0 mi SE 5.8 mph - N/A   Clear
9:55 AM 73.2 °F - 57.4 °F 57% 30.16 in 10.0 mi ESE 5.8 mph - N/A   Clear
10:15 AM 73.2 °F - 57.4 °F 57% 30.17 in 10.0 mi Calm Calm - N/A   Clear
10:35 AM 73.0 °F - 57.7 °F 59% 30.17 in 10.0 mi Calm Calm - N/A   Clear
10:55 AM 74.1 °F - 58.1 °F 57% 30.17 in 10.0 mi Calm Calm - N/A   Clear
11:15 AM 74.3 °F - 58.5 °F 58% 30.17 in 10.0 mi SW 6.9 mph - N/A   Clear
11:35 AM 75.2 °F - 58.3 °F 56% 30.16 in 10.0 mi Calm Calm - N/A   Clear
11:55 AM 77.0 °F - 59.5 °F 55% 30.15 in 10.0 mi SSE 5.8 mph - N/A   Clear
12:15 PM 77.0 °F - 59.7 °F 55% 30.15 in 10.0 mi SE 4.6 mph - N/A   Clear
12:35 PM 79.0 °F - 59.9 °F 52% 30.16 in 10.0 mi SSE 6.9 mph - N/A   Scattered Clouds
12:55 PM 79.5 °F - 59.2 °F 50% 30.15 in 10.0 mi South 9.2 mph - N/A   Scattered Clouds
1:15 PM 79.9 °F - 58.6 °F 48% 30.14 in 10.0 mi Calm Calm - N/A   Scattered Clouds
1:35 PM 81.0 °F 81.2 °F 58.1 °F 46% 30.14 in 10.0 mi SSE 10.4 mph - N/A   Scattered Clouds
1:55 PM 81.0 °F 81.3 °F 58.8 °F 47% 30.13 in 10.0 mi South 8.1 mph - N/A   Mostly Cloudy
2:15 PM 82.0 °F 81.7 °F 56.8 °F 42% 30.13 in 10.0 mi South 9.2 mph 18.4 mph N/A   Mostly Cloudy
2:35 PM 81.5 °F 81.5 °F 57.4 °F 44% 30.12 in 10.0 mi North - - N/A   Overcast
2:55 PM 81.9 °F 81.9 °F 58.5 °F 45% 30.11 in 10.0 mi South 15.0 mph 19.6 mph N/A   Overcast
3:15 PM - - - N/A% 30.10 in 10.0 mi South 13.8 mph 17.3 mph N/A   Mostly Cloudy
3:35 PM - - - N/A% 30.10 in 10.0 mi South 10.4 mph 20.7 mph N/A   Mostly Cloudy
3:55 PM - - - N/A% 30.09 in 10.0 mi SSE 10.4 mph 19.6 mph N/A   Mostly Cloudy
4:15 PM - - - N/A% 30.08 in 10.0 mi SSE 12.7 mph 18.4 mph N/A   Scattered Clouds
4:35 PM 84.4 °F 83.4 °F 56.1 °F 38% 30.08 in 10.0 mi SSE 11.5 mph 18.4 mph N/A   Scattered Clouds
4:55 PM - - - N/A% 30.07 in 10.0 mi South 15.0 mph 20.7 mph N/A   Mostly Cloudy
5:15 PM - - - N/A% 30.06 in 10.0 mi South 12.7 mph 19.6 mph N/A   Scattered Clouds
5:35 PM - - - N/A% 30.05 in 10.0 mi SSE 10.4 mph - N/A   Clear
5:55 PM - - - N/A% 30.05 in 10.0 mi SE 15.0 mph 19.6 mph N/A   Scattered Clouds
6:15 PM - - - N/A% 30.04 in 10.0 mi SSE 13.8 mph 20.7 mph N/A   Scattered Clouds
6:35 PM - - - N/A% 30.04 in 10.0 mi South 12.7 mph 18.4 mph N/A   Scattered Clouds
6:55 PM - - - N/A% 30.03 in 10.0 mi SSE 13.8 mph 18.4 mph N/A   Scattered Clouds
7:15 PM - - - N/A% 30.03 in 10.0 mi South 17.3 mph 20.7 mph N/A   Clear
7:35 PM - - - N/A% 30.03 in 10.0 mi South 13.8 mph - N/A   Clear
7:55 PM - - - N/A% 30.03 in 10.0 mi SSE 16.1 mph - N/A   Clear
8:15 PM - - - N/A% 30.03 in 10.0 mi South 15.0 mph - N/A   Clear
8:35 PM - - - N/A% 30.03 in 10.0 mi SSE 12.7 mph 21.9 mph N/A   Clear
8:55 PM - - - N/A% 30.02 in 10.0 mi SSE 12.7 mph 19.6 mph N/A   Clear
9:15 PM - - - N/A% 30.03 in 10.0 mi SSE 12.7 mph - N/A   Clear
9:35 PM - - - N/A% 30.03 in 10.0 mi SSE 15.0 mph 18.4 mph N/A   Clear
9:55 PM 74.3 °F - 61.0 °F 63% 30.02 in 10.0 mi SSE 12.7 mph 18.4 mph N/A   Clear
10:15 PM 73.6 °F - 60.8 °F 64% 30.04 in 10.0 mi SE 16.1 mph 20.7 mph N/A   Clear
10:35 PM 72.7 °F - 61.0 °F 67% 30.04 in 10.0 mi SE 13.8 mph - N/A   Clear
10:55 PM 71.8 °F - 61.0 °F 69% 30.04 in 10.0 mi SE 16.1 mph 20.7 mph N/A   Clear
11:15 PM 71.6 °F - 61.0 °F 69% 30.05 in 10.0 mi SSE 15.0 mph - N/A   Clear
11:35 PM 71.1 °F - 61.0 °F 70% 30.04 in 10.0 mi SE 16.1 mph 20.7 mph N/A   Clear
11:55 PM 70.7 °F - 61.0 °F 71% 30.05 in 10.0 mi SE 13.8 mph - N/A   Clear